Meteo orario Abakanovo

Oggi, 19 Giugno, Sabato

Tempo Temperatura Precipitazioni Vento Pressione Umidità
00:00 +17°C° 0 mm 2 m/s 746 mm Hg 84%
01:00 +16°C° 0 mm 2 m/s 746 mm Hg 87%
02:00 +16°C° 0 mm 2 m/s 746 mm Hg 90%
03:00 +16°C° 0 mm 2 m/s 746 mm Hg 88%
04:00 +17°C° 0 mm 2 m/s 746 mm Hg 87%
05:00 +17°C° 0 mm 2 m/s 746 mm Hg 85%
06:00 +19°C° 0 mm 2 m/s 746 mm Hg 76%
07:00 +21°C° 0 mm 2 m/s 746 mm Hg 67%
08:00 +24°C° 0 mm 2 m/s 746 mm Hg 58%
09:00 +25°C° 0 mm 2 m/s 746 mm Hg 53%
10:00 +27°C° 0 mm 2 m/s 746 mm Hg 48%
11:00 +28°C° 0 mm 2 m/s 746 mm Hg 43%
12:00 +29°C° 0 mm 2 m/s 745 mm Hg 41%
13:00 +29°C° 0 mm 2 m/s 745 mm Hg 39%
14:00 +30°C° 0 mm 3 m/s 745 mm Hg 38%
15:00 +30°C° 0 mm 2 m/s 744 mm Hg 39%
16:00 +29°C° 0 mm 2 m/s 744 mm Hg 41%
17:00 +29°C° 0 mm 2 m/s 744 mm Hg 43%
18:00 +27°C° 0 mm 2 m/s 744 mm Hg 53%
19:00 +25°C° 0 mm 2 m/s 744 mm Hg 63%
20:00 +21°C° 0 mm 2 m/s 744 mm Hg 73%
21:00 +20°C° 0 mm 2 m/s 744 mm Hg 76%
22:00 +19°C° 0 mm 2 m/s 744 mm Hg 79%
23:00 +18°C° 0 mm 2 m/s 744 mm Hg 82%

Domani, 20 Giugno, Domenica

Tempo Temperatura Precipitazioni Vento Pressione Umidità
00:00 +17°C° 0 mm 2 m/s 744 mm Hg 86%
01:00 +17°C° 0 mm 2 m/s 744 mm Hg 89%
02:00 +16°C° 0 mm 2 m/s 744 mm Hg 93%
03:00 +18°C° 0 mm 1 m/s 744 mm Hg 91%
04:00 +18°C° 0 mm 1 m/s 744 mm Hg 90%
05:00 +19°C° 0 mm 1 m/s 744 mm Hg 88%
06:00 +20°C° 0 mm 2 m/s 744 mm Hg 81%
07:00 +23°C° 0 mm 2 m/s 744 mm Hg 73%
08:00 +25°C° 0 mm 2 m/s 744 mm Hg 65%
09:00 +26°C° 0 mm 2 m/s 744 mm Hg 60%
10:00 +28°C° 0 mm 2 m/s 744 mm Hg 54%
11:00 +29°C° 0 mm 2 m/s 744 mm Hg 49%
12:00 +30°C° 0 mm 2 m/s 744 mm Hg 46%
13:00 +31°C° 0 mm 2 m/s 743 mm Hg 43%
14:00 +31°C° 0 mm 2 m/s 743 mm Hg 40%
15:00 +31°C° 0 mm 2 m/s 743 mm Hg 42%
16:00 +31°C° 0 mm 2 m/s 742 mm Hg 43%
17:00 +31°C° 0 mm 1 m/s 742 mm Hg 45%
18:00 +29°C° 0 mm 1 m/s 742 mm Hg 53%
19:00 +27°C° 0 mm 1 m/s 742 mm Hg 61%
20:00 +25°C° 0 mm 1 m/s 742 mm Hg 69%
21:00 +24°C° 0 mm 1 m/s 742 mm Hg 74%
22:00 +23°C° 0 mm 1 m/s 742 mm Hg 79%
23:00 +21°C° 0 mm 2 m/s 742 mm Hg 83%

Dopodomani, 21 Giugno, Lunedi

Tempo Temperatura Precipitazioni Vento Pressione Umidità
00:00 +20°C° 0 mm 2 m/s 742 mm Hg 86%
01:00 +20°C° 0 mm 2 m/s 742 mm Hg 89%
02:00 +19°C° 0 mm 2 m/s 743 mm Hg 91%
03:00 +21°C° 0 mm 1 m/s 743 mm Hg 90%
04:00 +21°C° 0 mm 1 m/s 743 mm Hg 89%
05:00 +21°C° 0 mm 1 m/s 743 mm Hg 88%
06:00 +23°C° 0 mm 1 m/s 743 mm Hg 78%
07:00 +25°C° 0 mm 2 m/s 743 mm Hg 69%
08:00 +26°C° 0 mm 2 m/s 743 mm Hg 59%
09:00 +28°C° 0 mm 2 m/s 743 mm Hg 54%
10:00 +29°C° 0 mm 3 m/s 743 mm Hg 48%
11:00 +30°C° 0 mm 3 m/s 743 mm Hg 43%
12:00 +30°C° 0 mm 3 m/s 743 mm Hg 42%
13:00 +31°C° 0 mm 3 m/s 742 mm Hg 40%
14:00 +31°C° 0 mm 3 m/s 742 mm Hg 39%
15:00 +31°C° 0 mm 3 m/s 742 mm Hg 39%
16:00 +31°C° 0 mm 3 m/s 742 mm Hg 40%
17:00 +30°C° 0 mm 3 m/s 742 mm Hg 41%
18:00 +28°C° 0 mm 2 m/s 742 mm Hg 50%
19:00 +26°C° 0 mm 2 m/s 742 mm Hg 60%
20:00 +24°C° 0 mm 2 m/s 742 mm Hg 70%
21:00 +23°C° 0 mm 2 m/s 742 mm Hg 74%
22:00 +21°C° 0 mm 2 m/s 742 mm Hg 78%
23:00 +20°C° 0 mm 2 m/s 742 mm Hg 82%

22 Giugno, Martedi

Tempo Temperatura Precipitazioni Vento Pressione Umidità
00:00 +19°C° 0 mm 2 m/s 742 mm Hg 86%
01:00 +19°C° 0 mm 2 m/s 742 mm Hg 89%
02:00 +18°C° 0 mm 2 m/s 742 mm Hg 92%
03:00 +19°C° 0 mm 2 m/s 742 mm Hg 91%
04:00 +19°C° 0 mm 2 m/s 742 mm Hg 90%
05:00 +20°C° 0 mm 2 m/s 742 mm Hg 88%
06:00 +23°C° 0 mm 2 m/s 742 mm Hg 78%
07:00 +25°C° 0 mm 3 m/s 742 mm Hg 69%
08:00 +27°C° 0 mm 3 m/s 742 mm Hg 59%
09:00 +29°C° 0 mm 4 m/s 742 mm Hg 51%
10:00 +30°C° 0 mm 4 m/s 742 mm Hg 44%
11:00 +33°C° 0 mm 4 m/s 742 mm Hg 37%
12:00 +34°C° 0 mm 4 m/s 742 mm Hg 35%
13:00 +34°C° 0 mm 4 m/s 742 mm Hg 33%
14:00 +35°C° 0 mm 4 m/s 742 mm Hg 31%
15:00 +35°C° 0 mm 4 m/s 742 mm Hg 33%
16:00 +34°C° 0 mm 4 m/s 742 mm Hg 34%
17:00 +34°C° 0 mm 4 m/s 742 mm Hg 36%
18:00 +31°C° 0 mm 3 m/s 742 mm Hg 47%
19:00 +28°C° 0 mm 3 m/s 742 mm Hg 57%
20:00 +26°C° 0 mm 2 m/s 742 mm Hg 67%
21:00 +25°C° 0 mm 2 m/s 742 mm Hg 72%
22:00 +24°C° 0 mm 2 m/s 742 mm Hg 77%
23:00 +21°C° 0 mm 2 m/s 742 mm Hg 81%

23 Giugno, Mercoledi

Tempo Temperatura Precipitazioni Vento Pressione Umidità
00:00 +21°C° 0 mm 2 m/s 742 mm Hg 84%
01:00 +21°C° 0 mm 2 m/s 743 mm Hg 87%
02:00 +20°C° 0 mm 2 m/s 743 mm Hg 91%
03:00 +21°C° 0 mm 2 m/s 743 mm Hg 89%
04:00 +21°C° 0 mm 2 m/s 743 mm Hg 88%
05:00 +23°C° 0 mm 2 m/s 743 mm Hg 87%
06:00 +24°C° 0 mm 2 m/s 743 mm Hg 79%
07:00 +26°C° 0 mm 2 m/s 743 mm Hg 72%
08:00 +28°C° 0 mm 3 m/s 744 mm Hg 64%
09:00 +30°C° 0 mm 3 m/s 744 mm Hg 57%
10:00 +31°C° 0 mm 3 m/s 744 mm Hg 49%
11:00 +33°C° 0 mm 3 m/s 744 mm Hg 42%
12:00 +34°C° 0 mm 3 m/s 744 mm Hg 39%
13:00 +35°C° 0 mm 3 m/s 744 mm Hg 35%
14:00 +35°C° 0 mm 3 m/s 743 mm Hg 32%
15:00 +35°C° 0 mm 3 m/s 743 mm Hg 34%
16:00 +35°C° 0 mm 3 m/s 743 mm Hg 36%
17:00 +34°C° 0 mm 2 m/s 743 mm Hg 38%
18:00 +31°C° 0 mm 2 m/s 743 mm Hg 47%
19:00 +29°C° 0 mm 2 m/s 743 mm Hg 57%
20:00 +27°C° 0 mm 2 m/s 743 mm Hg 67%
21:00 +25°C° 0 mm 2 m/s 743 mm Hg 70%
22:00 +24°C° 0 mm 2 m/s 743 mm Hg 73%
23:00 +23°C° 0 mm 2 m/s 743 mm Hg 76%

24 Giugno, Giovedi

Tempo Temperatura Precipitazioni Vento Pressione Umidità
00:00 +23°C° 0 mm 2 m/s 743 mm Hg 79%
01:00 +23°C° 0 mm 2 m/s 743 mm Hg 82%
02:00 +21°C° 0 mm 2 m/s 744 mm Hg 85%
03:00 +23°C° 0 mm 2 m/s 744 mm Hg 85%
04:00 +23°C° 0 mm 2 m/s 743 mm Hg 85%
05:00 +24°C° 0 mm 1 m/s 743 mm Hg 84%
06:00 +26°C° 0 mm 2 m/s 744 mm Hg 76%
07:00 +28°C° 0 mm 2 m/s 744 mm Hg 68%
08:00 +29°C° 0 mm 3 m/s 744 mm Hg 60%
09:00 +31°C° 0 mm 3 m/s 744 mm Hg 53%
10:00 +33°C° 0 mm 3 m/s 744 mm Hg 46%
11:00 +35°C° 0 mm 3 m/s 743 mm Hg 39%
12:00 +35°C° 0 mm 3 m/s 743 mm Hg 36%
13:00 +36°C° 0 mm 3 m/s 743 mm Hg 33%
14:00 +37°C° 0 mm 3 m/s 743 mm Hg 30%
15:00 +36°C° 0 mm 3 m/s 743 mm Hg 32%
16:00 +36°C° 0 mm 3 m/s 742 mm Hg 34%
17:00 +36°C° 0 mm 3 m/s 742 mm Hg 35%
18:00 +32°C° 0 mm 2 m/s 742 mm Hg 45%
19:00 +29°C° 0 mm 2 m/s 741 mm Hg 55%
20:00 +27°C° 0 mm 1 m/s 741 mm Hg 65%
21:00 +26°C° 0 mm 1 m/s 741 mm Hg 70%
22:00 +25°C° 0 mm 1 m/s 742 mm Hg 74%
23:00 +23°C° 0 mm 1 m/s 742 mm Hg 78%
Mostrare altro

Abbiamo bisogno del tuo consenso

Meteoprog e i nostri fornitori di servizi possono memorizzare e accedere a dati personali come cookie, identificatori di dispositivi o altre tecnologie simili sul tuo dispositivo e possono elaborare tali dati per personalizzare i contenuti e gli annunci, nonché fornire funzionalità dei social media e analizzarne il traffico.

  • Archiviare e/o accedere alle informazioni sul tuo dispositivo

    Cookie, identificatori di dispositivi o altre informazioni possono essere memorizzati o resi accessibili sul tuo dispositivo per le finalità sopra indicate.

  • Annunci e contenuti personalizzati, misurazione di annunci e contenuti, approfondimenti sul pubblico e sviluppo di prodotti

    Gli annunci e i contenuti possono essere personalizzati in base a un profilo. È possibile aggiungere più dati per personalizzare meglio annunci e contenuti. È possibile misurare il rendimento degli annunci e dei contenuti. È possibile ricavare informazioni sul pubblico che ha visto gli annunci e i contenuti. Tali dati possono essere utilizzati per sviluppare o migliorare l'esperienza, i sistemi e il software dell'utente.

Cliccando su “Accetto”, acconsenti all'uso di cookie, identificatori di dispositivo, web beacon o altre tecnologie simili. Puoi modificare le impostazioni nel browser del tuo dispositivo.

Per determinati scopi, è possibile fare affidamento su interessi legali, piuttosto che sul consenso. Puoi approfondire questo argomento consultando la nostra Informativa sulla privacy e sui cookie.